AirNav   Bose A20 Aviation Headset
 
 735 users online  

CYQG Windsor Airport
Windsor, Ontario, Canada

GOING TO WINDSOR?


FAA INFORMATION EFFECTIVE 11 OCTOBER 2018

The information below comes from the U.S. Federal Avaition Administration (FAA). The FAA is not the official source of data for facilities located outside the United States, and THESE RECORDS ARE LIKELY NOT COMPLETE OR CORRECT.

Location

FAA Identifier: CYQG
Lat/Long: 42-16-33.1111N / 082-57-27.5347W
42-16.551852N / 082-57.458912W
42.2758642 / -82.9576485
(estimated)
Elevation: 622 ft. / 190 m (estimated)
Variation: 07W ()
Time zone: UTC -4 (UTC -5 during Standard Time)
Zip code: 48243

Airport Operations

Airport use: Open to the public
Activation date: 03/2005
Control tower: no
ARTCC: CLEVELAND CENTER
FSS: LONDON FIC FLIGHT SERVICE STATION
Attendance: 
Segmented circle: no

Airport Communications

WX ASOS at DET (8 nm N): PHONE 313-371-9696
WX AWOS-3 at ONZ (14 nm SW): 119.675 (734-692-9686)
WX ASOS at DTW (18 nm W): PHONE 734-955-5015
WX AWOS-3 at VLL (19 nm NW): 119.475 (248-288-4649)

Nearby radio navigation aids

VOR radial/distance  VOR name  Freq  Var
YQGr291/5.9WINDSOR VOR/DME113.8006W
DXOr084/18.6DETROIT VOR/DME113.4006W
CRLr061/26.1CARLETON VOR/DME115.7003W
SVMr109/29.3SALEM VORTAC114.3003W

 
NDB name  Hdg/Dist  Freq  Var  ID
GROSSE ILE047/13.641907WRYS .-. -.-- ...

Airport Services

Runway Information

Runway 7/25

Dimensions: 9000 x 200 ft. / 2743 x 61 m
Surface: asphalt
RUNWAY 7  RUNWAY 25
Latitude: 42-16.404018N42-17.086803N
Longitude: 082-58.209487W082-56.438652W
Elevation: 622.0 ft.608.0 ft.
Traffic pattern: leftleft
Runway heading: 070 magnetic, 063 true250 magnetic, 243 true
Displaced threshold: 901 ft.1143 ft.
Touchdown point: yes, no lightsyes, no lights

Runway 12/30

Dimensions: 5150 x 150 ft. / 1570 x 46 m
Surface: asphalt
RUNWAY 12  RUNWAY 30
Latitude: 42-16.396830N42-16.030400N
Longitude: 082-58.209295W082-57.179820W
Elevation: 622.0 ft.619.0 ft.
Traffic pattern: leftleft
Runway heading: 123 magnetic, 116 true303 magnetic, 296 true
Displaced threshold: 570 ft.321 ft.
Touchdown point: yes, no lightsyes, no lights

Airport Ownership and Management from official FAA records

Ownership: Publicly-owned

Additional Remarks

FOR CD CTC DETROIT APCH AT 800-499-8181.

Instrument Procedures

There are no published instrument procedures at CYQG.

Some nearby airports with instrument procedures:

KDET - Coleman A Young Municipal Airport (8 nm N)
KONZ - Grosse Ile Municipal Airport (14 nm SW)
KDTW - Detroit Metropolitan Wayne County Airport (18 nm W)
KVLL - Oakland/Troy Airport (19 nm NW)
KMTC - Selfridge Air National Guard Base (21 nm N)
 
Loc | Ops | Rwys | IFR | FBO | Links
Com | Nav | Svcs | Stats | Notes


 
Aerial photo
No photo
 
Airport distance calculator
Flying to Windsor Airport? Find the distance to fly.

From to CYQG

Sunrise and sunset
Times for 18-Oct-2018
 Local
(UTC-4)
 Zulu
(UTC)
Morning civil twilight07:2111:21
Sunrise07:4911:49
Sunset18:4522:45
Evening civil twilight19:1323:13

Current date and time
Zulu (UTC)  19-Oct-2018 03:46:07
Local (UTC-4)  18-Oct-2018 23:46:07
 
METAR
CYQG 190300Z AUTO 23011KT 9SM CLR 08/M00 A3031 RMK SLP271
KDET 
8nm N 
190253Z 23010KT 10SM CLR 08/M01 A3031 RMK AO2 SLP268 T00781011 58015
KONZ 
14nm SW 
190208Z AUTO 21005KT 10SM CLR 08/00 A3033 RMK AO2
CXHA 
15nm S 
190300Z AUTO 23009KT 10/02 RMK AO1 SLP267 T00970022 58013
KDTW 
17nm W 
190253Z 22008KT 10SM CLR 06/M01 A3032 RMK AO2 SLP273 T00561011 58012
KVLL 
19nm NW 
190335Z AUTO 23007KT 10SM CLR 08/M01 A3031 RMK AO2 T00751015
TAF
CYQG 181738Z 1818/1918 25012KT P6SM FEW030 BECMG 1822/1824 24010KT FM191500 23010G20KT P6SM SCT150 BKN200 RMK FCST BASED ON AUTO OBS. NXT FCST BY 190000Z
KDET 
8nm N 
181720Z 1818/1918 24010KT P6SM SKC
KDTW 
17nm W 
182113Z 1821/1924 24010KT P6SM SKC
NOTAMs
Click for the latest NOTAMs
NOTAMs are issued by the DoD/FAA and will open in a separate window not controlled by AirNav.

 

 
 

Would you like to see your business listed on this page?

 If your business provides an interesting product or service to pilots, flight crews, aircraft, or users of the Windsor Airport, you should consider listing it here.  To start the listing process, click on the button below
 
Add a business
 

Other Pages about Windsor Airport

Update a link
 
Copyright © AirNav, LLC. All rights reserved. Privacy Policy  Contact